This is the latest recevied weather packets stored in our database for station/object DG2US-10. If no packets are shown the sender has not sent any weather packets the latest 10 day(s).
| Time | Temp. | Humidity | Pressure | Rain* | Wind** | Luminosity | Snow |
|---|---|---|---|---|---|---|---|
| 1777571715 | 23.89° C | 25% | 1028.9 hPa | - | - | - | - |
| 1777570815 | 23.89° C | 25% | 1028.8 hPa | - | - | - | - |
| 1777569915 | 23.89° C | 26% | 1028.9 hPa | - | - | - | - |
| 1777569015 | 23.89° C | 26% | 1029 hPa | - | - | - | - |
| 1777568115 | 22.22° C | 27% | 1029 hPa | - | - | - | - |
| 1777567215 | 24.44° C | 25% | 1029 hPa | - | - | - | - |
| 1777566314 | 23.33° C | 27% | 1028.9 hPa | - | - | - | - |
| 1777565414 | 23.89° C | 27% | 1029.1 hPa | - | - | - | - |
| 1777564514 | 21.67° C | 25% | 1029.2 hPa | - | - | - | - |
| 1777563614 | 24.44° C | 24% | 1029.3 hPa | - | - | - | - |
| 1777562714 | 23.89° C | 24% | 1029.3 hPa | - | - | - | - |
| 1777561814 | 23.33° C | 24% | 1029.4 hPa | - | - | - | - |
| 1777560914 | 21.67° C | 23% | 1029.5 hPa | - | - | - | - |
| 1777560014 | 23.89° C | 25% | 1029.7 hPa | - | - | - | - |
| 1777559114 | 21.11° C | 26% | 1029.8 hPa | - | - | - | - |
| 1777558214 | 23.89° C | 26% | 1029.9 hPa | - | - | - | - |
| 1777557314 | 22.22° C | 22% | 1030 hPa | - | - | - | - |
| 1777556414 | 22.78° C | 26% | 1030 hPa | - | - | - | - |
| 1777555514 | 22.78° C | 24% | 1030.2 hPa | - | - | - | - |
| 1777554614 | 23.89° C | 24% | 1030.3 hPa | - | - | - | - |
| 1777553714 | 23.33° C | 23% | 1030.6 hPa | - | - | - | - |
| 1777552813 | 22.22° C | 24% | 1030.7 hPa | - | - | - | - |
| 1777551913 | 24.44° C | 21% | 1030.8 hPa | - | - | - | - |
| 1777551013 | 23.89° C | 23% | 1031 hPa | - | - | - | - |
| 1777550113 | 25° C | 20% | 1031.1 hPa | - | - | - | - |
* Rain since midnight (hover to see other rain measurements)
** Current wind speed in m/s (hover to see current wind gust speed)